DL9RAN-11 Weather Reports


time (UTC)temp
C
wind
direction
speed
KPH
gust
KPH
rain 1hr
cm
rain 24hr
cm
rain mn
cm
humidity
%
barometer
mb
20260506071108 15 0.0 0.0 0.00 0.00 0.00 71 1010.8
20260506070607 15 0.0 0.0 0.00 0.00 0.00 71 1010.8
20260506035540 12 0.0 0.0 0.00 0.00 0.00 76 1011.2
20260506034509 12 0.0 0.0 0.00 0.00 0.00 76 1011.3
20260506034008 12 0.0 0.0 0.00 0.00 0.00 76 1011.3
20260506033508 12 0.0 0.0 0.00 0.00 0.00 76 1011.3
20260506033008 12 0.0 0.0 0.00 0.00 0.00 76 1011.2
20260506032507 12 0.0 0.0 0.00 0.00 0.00 76 1011.2
20260506032007 12 0.0 0.0 0.00 0.00 0.00 76 1011.2
20260506031507 12 0.0 0.0 0.00 0.00 0.00 76 1011.2
20260506031007 13 0.0 0.0 0.00 0.00 0.00 76 1011.1
20260506030506 13 0.0 0.0 0.00 0.00 0.00 76 1011.1
20260506030006 13 0.0 0.0 0.00 0.00 0.00 76 1010.9
20260506025506 13 0.0 0.0 0.00 0.00 0.00 76 1011.1
20260506025005 13 0.0 0.0 0.00 0.00 0.00 76 1011.1
20260506024505 13 0.0 0.0 0.00 0.00 0.00 76 1011.1
20260506024005 13 0.0 0.0 0.00 0.00 0.00 76 1011.1
20260506023504 13 0.0 0.0 0.00 0.00 0.00 76 1011.1
20260506023004 13 0.0 0.0 0.00 0.00 0.00 76 1011.1
20260506021932 13 0.0 0.0 0.00 0.00 0.00 76 1011.1
20260506020330 13 0.0 0.0 0.00 0.00 0.00 77 1011.4
20260506014156 13 0.0 0.0 0.00 0.00 0.00 76 1011.3
20260506013656 13 0.0 0.0 0.00 0.00 0.00 76 1011.2
20260506012624 13 0.0 0.0 0.00 0.00 0.00 75 1011.3
20260506011553 14 0.0 0.0 0.00 0.00 0.00 74 1011.5
20260506005950 15 0.0 0.0 0.00 0.00 0.00 73 1011.5
20260506004347 15 0.0 0.0 0.00 0.00 0.00 74 1011.8
20260506003847 15 0.0 0.0 0.00 0.00 0.00 73 1011.8
20260506003347 15 0.0 0.0 0.00 0.00 0.00 73 1011.7
20260506001213 15 0.0 0.0 0.00 0.00 0.00 74 1011.8
20260505235610 15 0.0 0.0 0.00 0.00 0.00 73 1012.2
20260505232334 15 0.0 0.0 0.00 0.00 0.00 73 1012.2
20260505231834 15 0.0 0.0 0.00 0.00 0.00 73 1012.2
20260505230803 15 0.0 0.0 0.00 0.00 0.00 72 1012.2
20260505225731 15 0.0 0.0 0.00 0.00 0.00 71 1012.2
20260505223557 15 0.0 0.0 0.00 0.00 0.00 71 1012.0
20260505223057 15 0.0 0.0 0.00 0.00 0.00 71 1012.0
20260505222026 15 0.0 0.0 0.00 0.00 0.00 71 1012.0
20260505220954 15 0.0 0.0 0.00 0.00 0.00 71 1011.9
20260505220454 15 0.0 0.0 0.00 0.00 0.00 71 1011.9
20260505215954 15 0.0 0.0 0.00 0.00 0.00 71 1012.1
20260505215453 16 0.0 0.0 0.00 0.00 0.00 71 1012.1
20260505214953 16 0.0 0.0 0.00 0.00 0.00 71 1012.1
20260505214453 16 0.0 0.0 0.00 0.00 0.00 70 1011.8
20260505213952 16 0.0 0.0 0.00 0.00 0.00 70 1011.8
20260505213452 16 0.0 0.0 0.00 0.00 0.00 70 1011.8
20260505212420 16 0.0 0.0 0.00 0.00 0.00 69 1011.8
20260505210818 16 0.0 0.0 0.00 0.00 0.00 68 1011.6
20260505205746 16 0.0 0.0 0.00 0.00 0.00 67 1011.2
20260505204715 16 0.0 0.0 0.00 0.00 0.00 67 1011.2
20260505200336 17 0.0 0.0 0.00 0.00 0.00 66 1010.8
20260505195836 17 0.0 0.0 0.00 0.00 0.00 66 1010.7
20260505194233 17 0.0 0.0 0.00 0.00 0.00 64 1010.0
20260505192100 17 0.0 0.0 0.00 0.00 0.00 65 1009.7
20260505191559 17 0.0 0.0 0.00 0.00 0.00 65 1009.7
20260505185957 17 0.0 0.0 0.00 0.00 0.00 64 1009.6
20260505184354 17 0.0 0.0 0.00 0.00 0.00 63 1009.7
20260505183854 17 0.0 0.0 0.00 0.00 0.00 63 1009.7
20260505183353 17 0.0 0.0 0.00 0.00 0.00 64 1009.7
20260505182853 17 0.0 0.0 0.00 0.00 0.00 64 1009.7
20260505182353 17 0.0 0.0 0.00 0.00 0.00 64 1009.7
20260505181852 17 0.0 0.0 0.00 0.00 0.00 63 1009.7
20260505181352 18 0.0 0.0 0.00 0.00 0.00 63 1009.6
20260505180852 18 0.0 0.0 0.00 0.00 0.00 62 1009.7
20260505180351 18 0.0 0.0 0.00 0.00 0.00 61 1010.0
20260505175851 18 0.0 0.0 0.00 0.00 0.00 60 1010.0
20260505175351 19 0.0 0.0 0.00 0.00 0.00 57 1010.0
20260505174319 19 0.0 0.0 0.00 0.00 0.00 52 1009.9
20260505173248 20 0.0 0.0 0.00 0.00 0.00 52 1009.9
20260505172747 20 0.0 0.0 0.00 0.00 0.00 52 1010.0
20260505172247 20 0.0 0.0 0.00 0.00 0.00 51 1010.0
20260505171747 20 0.0 0.0 0.00 0.00 0.00 51 1010.0
20260505171246 20 0.0 0.0 0.00 0.00 0.00 51 1009.3
20260505165112 21 0.0 0.0 0.00 0.00 0.00 47 1009.3
20260505164041 23 0.0 0.0 0.00 0.00 0.00 46 1008.8
20260505162438 23 0.0 0.0 0.00 0.00 0.00 41 1008.8
20260505161938 23 0.0 0.0 0.00 0.00 0.00 41 1008.8
20260505161437 23 0.0 0.0 0.00 0.00 0.00 40 1008.8
20260505160406 23 0.0 0.0 0.00 0.00 0.00 41 1008.8
20260505153302 23 0.0 0.0 0.00 0.00 0.00 40 1008.8
20260505152231 23 0.0 0.0 0.00 0.00 0.00 39 1008.9
20260505151731 23 0.0 0.0 0.00 0.00 0.00 39 1009.0
20260505151230 23 0.0 0.0 0.00 0.00 0.00 39 1009.0
20260505124735 25 0.0 0.0 0.00 0.00 0.00 37 1010.4
20260505123704 25 0.0 0.0 0.00 0.00 0.00 36 1010.4
20260505123204 25 0.0 0.0 0.00 0.00 0.00 36 1010.4
20260505122132 25 0.0 0.0 0.00 0.00 0.00 36 1010.4
20260505121101 26 0.0 0.0 0.00 0.00 0.00 35 1010.8
20260505120029 26 0.0 0.0 0.00 0.00 0.00 36 1011.0
20260505114426 26 0.0 0.0 0.00 0.00 0.00 34 1011.0
20260505113355 26 0.0 0.0 0.00 0.00 0.00 35 1011.0
20260505112323 26 0.0 0.0 0.00 0.00 0.00 36 1011.0
20260505111823 26 0.0 0.0 0.00 0.00 0.00 37 1011.1
20260505110220 27 0.0 0.0 0.00 0.00 0.00 35 1011.2
20260505101944 26 0.0 0.0 0.00 0.00 0.00 43 1011.5
20260505095238 26 0.0 0.0 0.00 0.00 0.00 43 1011.5
20260505093105 25 0.0 0.0 0.00 0.00 0.00 45 1011.6
20260505092604 25 0.0 0.0 0.00 0.00 0.00 46 1011.6
20260505091533 25 0.0 0.0 0.00 0.00 0.00 47 1011.6
20260505091033 24 0.0 0.0 0.00 0.00 0.00 46 1011.6
20260505090532 24 0.0 0.0 0.00 0.00 0.00 46 1011.6
20260505090032 24 0.0 0.0 0.00 0.00 0.00 47 1011.6
20260505083858 23 0.0 0.0 0.00 0.00 0.00 48 1011.6
20260505082826 23 0.0 0.0 0.00 0.00 0.00 49 1011.6
20260505082326 23 0.0 0.0 0.00 0.00 0.00 51 1011.9
20260505081826 22 0.0 0.0 0.00 0.00 0.00 51 1011.9
20260505081325 22 0.0 0.0 0.00 0.00 0.00 52 1011.9
20260505080825 22 0.0 0.0 0.00 0.00 0.00 53 1011.7
20260505075754 22 0.0 0.0 0.00 0.00 0.00 53 1011.9
20260505075253 22 0.0 0.0 0.00 0.00 0.00 53 1011.9
20260505074222 21 0.0 0.0 0.00 0.00 0.00 55 1011.9
20260505073150 21 0.0 0.0 0.00 0.00 0.00 55 1011.9
20260505072650 20 0.0 0.0 0.00 0.00 0.00 56 1011.9
20260505072149 20 0.0 0.0 0.00 0.00 0.00 57 1011.9
20260505071649 20 0.0 0.0 0.00 0.00 0.00 58 1011.9